| time (UTC) | temp F | wind direction | speed knots | gust knots | rain 1hr in | rain 24hr in | rain mn in | humidity % | barometer mb |
| 20260507161604 | 62 | 290 | 2.6 | 5.2 | 0.00 | 0.00 | 0.00 | 80 | 1016.7 |
| 20260507160543 | 61 | 294 | 1.7 | 6.1 | 0.00 | 0.00 | 0.00 | 81 | 1016.8 |
| 20260507155039 | 60 | 285 | 1.7 | 5.2 | 0.00 | 0.00 | 0.00 | 82 | 1016.9 |
| 20260507153053 | 60 | 280 | 1.7 | 5.2 | 0.00 | 0.00 | 0.00 | 83 | 1016.7 |
| 20260507151556 | 60 | 126 | 1.7 | 3.5 | 0.00 | 0.00 | 0.00 | 84 | 1016.7 |
| 20260507150105 | 60 | 207 | 1.7 | 3.5 | 0.00 | 0.00 | 0.00 | 85 | 1016.7 |
| 20260507144556 | 59 | 225 | 0.9 | 1.7 | 0.00 | 0.00 | 0.00 | 86 | 1016.6 |
| 20260507143103 | 58 | 23 | 0.9 | 2.6 | 0.00 | 0.00 | 0.00 | 87 | 1016.5 |
| 20260507141557 | 57 | 33 | 1.7 | 3.5 | 0.00 | 0.00 | 0.00 | 88 | 1016.5 |
| 20260507140059 | 56 | 5 | 2.6 | 4.3 | 0.00 | 0.00 | 0.00 | 88 | 1016.3 |
| 20260507134558 | 55 | 37 | 1.7 | 3.5 | 0.00 | 0.00 | 0.00 | 89 | 1016.3 |
| 20260507133059 | 54 | 23 | 2.6 | 3.5 | 0.00 | 0.00 | 0.00 | 89 | 1016.3 |
| 20260507131617 | 54 | 15 | 1.7 | 2.6 | 0.00 | 0.00 | 0.00 | 89 | 1016.3 |
| 20260507130057 | 54 | 352 | 0.9 | 3.5 | 0.00 | 0.00 | 0.00 | 89 | 1016.2 |
| 20260507124556 | 54 | 5 | 1.7 | 2.6 | 0.00 | 0.00 | 0.00 | 89 | 1015.9 |
| 20260507123337 | 54 | 360 | 0.9 | 1.7 | 0.00 | 0.00 | 0.00 | 89 | 1016.0 |
| 20260507121946 | 54 | 33 | 0.9 | 1.7 | 0.00 | 0.00 | 0.00 | 88 | 1015.9 |
| 20260507120516 | 54 | 27 | 1.7 | 2.6 | 0.00 | 0.00 | 0.00 | 88 | 1015.9 |
| 20260507115030 | 54 | 35 | 0.9 | 1.7 | 0.00 | 0.00 | 0.00 | 88 | 1015.9 |
| 20260507113057 | 54 | 27 | 0.9 | 1.7 | 0.00 | 0.00 | 0.00 | 88 | 1015.9 |
| 20260507111554 | 54 | 16 | 0.9 | 3.5 | 0.00 | 0.00 | 0.00 | 88 | 1016.0 |
| 20260507110107 | 55 | 16 | 0.9 | 2.6 | 0.00 | 0.00 | 0.00 | 88 | 1016.0 |
| 20260507104556 | 54 | 19 | 0.9 | 2.6 | 0.00 | 0.00 | 0.00 | 88 | 1016.0 |
| 20260507103058 | 55 | 12 | 1.7 | 3.5 | 0.00 | 0.00 | 0.00 | 88 | 1016.1 |
| 20260507101558 | 55 | 29 | 2.6 | 3.5 | 0.00 | 0.00 | 0.00 | 87 | 1016.2 |
| 20260507100100 | 55 | 34 | 2.6 | 3.5 | 0.00 | 0.00 | 0.00 | 87 | 1016.0 |
| 20260507094610 | 55 | 14 | 2.6 | 3.5 | 0.00 | 0.00 | 0.00 | 87 | 1016.3 |
| 20260507093101 | 55 | 13 | 2.6 | 3.5 | 0.00 | 0.00 | 0.00 | 87 | 1016.5 |
| 20260507091640 | 56 | 29 | 1.7 | 3.5 | 0.00 | 0.00 | 0.00 | 87 | 1016.5 |
| 20260507090106 | 56 | 26 | 1.7 | 4.3 | 0.00 | 0.00 | 0.00 | 87 | 1016.7 |
| 20260507084559 | 56 | 40 | 1.7 | 2.6 | 0.00 | 0.00 | 0.00 | 87 | 1016.8 |
| 20260507083056 | 56 | 18 | 1.7 | 2.6 | 0.00 | 0.00 | 0.00 | 87 | 1016.9 |
| 20260507082111 | 57 | 55 | 1.7 | 2.6 | 0.00 | 0.00 | 0.00 | 86 | 1017.2 |
| 20260507081912 | 57 | 55 | 1.7 | 2.6 | 0.00 | 0.00 | 0.00 | 86 | 1017.2 |
| 20260507080553 | 58 | 0 | 0.0 | 2.6 | 0.00 | 0.00 | 0.00 | 87 | 1017.4 |
| 20260507080402 | 58 | 0 | 0.0 | 2.6 | 0.00 | 0.00 | 0.00 | 87 | 1017.4 |
| 20260507074556 | 59 | 325 | 1.7 | 2.6 | 0.00 | 0.00 | 0.00 | 87 | 1017.3 |
| 20260507073101 | 59 | 0 | 0.0 | 0.0 | 0.00 | 0.00 | 0.00 | 86 | 1017.4 |
| 20260507071610 | 59 | 0 | 0.0 | 0.0 | 0.00 | 0.00 | 0.00 | 86 | 1017.4 |
| 20260507070116 | 59 | 0 | 0.0 | 0.0 | 0.00 | 0.00 | 0.00 | 86 | 1017.5 |
| 20260507064611 | 58 | 0 | 0.0 | 0.0 | 0.00 | 0.00 | 0.00 | 85 | 1017.7 |
| 20260507063104 | 58 | 0 | 0.0 | 0.0 | 0.00 | 0.00 | 0.00 | 85 | 1017.8 |
| 20260507061613 | 59 | 0 | 0.0 | 0.0 | 0.00 | 0.00 | 0.00 | 84 | 1017.7 |
| 20260507060110 | 59 | 123 | 0.9 | 1.7 | 0.00 | 0.00 | 0.00 | 82 | 1017.8 |
| 20260507054601 | 59 | 123 | 0.9 | 2.6 | 0.00 | 0.00 | 0.00 | 82 | 1017.7 |
| 20260507053057 | 60 | 238 | 0.9 | 1.7 | 0.00 | 0.00 | 0.00 | 81 | 1017.8 |
| 20260507051556 | 60 | 0 | 0.0 | 1.7 | 0.00 | 0.00 | 0.00 | 81 | 1017.7 |
| 20260507050057 | 60 | 242 | 0.9 | 2.6 | 0.00 | 0.00 | 0.00 | 81 | 1017.5 |
| 20260507044557 | 60 | 257 | 1.7 | 5.2 | 0.00 | 0.00 | 0.00 | 80 | 1017.5 |
| 20260507043548 | 60 | 244 | 1.7 | 4.3 | 0.00 | 0.00 | 0.00 | 80 | 1017.4 |
| 20260507041849 | 61 | 235 | 2.6 | 6.1 | 0.00 | 0.00 | 0.00 | 81 | 1017.3 |
| 20260507041716 | 61 | 235 | 2.6 | 6.1 | 0.00 | 0.00 | 0.00 | 81 | 1017.3 |
| 20260507040104 | 61 | 273 | 4.3 | 7.0 | 0.00 | 0.00 | 0.00 | 81 | 1017.3 |
| 20260507034600 | 61 | 242 | 3.5 | 6.1 | 0.00 | 0.00 | 0.00 | 82 | 1017.2 |
| 20260507033055 | 61 | 257 | 3.5 | 7.8 | 0.00 | 0.00 | 0.00 | 81 | 1016.9 |
| 20260507031553 | 62 | 264 | 2.6 | 7.0 | 0.00 | 0.00 | 0.00 | 80 | 1016.8 |
| 20260507030056 | 62 | 263 | 5.2 | 7.8 | 0.00 | 0.00 | 0.00 | 79 | 1016.7 |
| 20260507024600 | 62 | 254 | 4.3 | 9.6 | 0.00 | 0.00 | 0.00 | 77 | 1016.6 |
| 20260507023055 | 63 | 245 | 4.3 | 9.6 | 0.00 | 0.00 | 0.00 | 74 | 1016.4 |
| 20260507021558 | 64 | 254 | 6.1 | 8.7 | 0.00 | 0.00 | 0.00 | 73 | 1016.4 |
| 20260507020057 | 64 | 268 | 7.0 | 9.6 | 0.00 | 0.00 | 0.00 | 71 | 1016.4 |
| 20260507014559 | 64 | 232 | 7.0 | 10.4 | 0.00 | 0.00 | 0.00 | 70 | 1016.3 |
| 20260507013056 | 65 | 211 | 6.1 | 9.6 | 0.00 | 0.00 | 0.00 | 69 | 1016.2 |
| 20260507011557 | 65 | 254 | 5.2 | 11.3 | 0.00 | 0.00 | 0.00 | 69 | 1016.2 |
| 20260507010111 | 65 | 254 | 7.8 | 12.2 | 0.00 | 0.00 | 0.00 | 68 | 1016.2 |
| 20260507005027 | 66 | 285 | 6.1 | 12.2 | 0.00 | 0.00 | 0.00 | 67 | 1016.2 |
| 20260507003101 | 66 | 294 | 6.1 | 10.4 | 0.00 | 0.00 | 0.00 | 67 | 1016.1 |
| 20260507001600 | 66 | 290 | 7.0 | 12.2 | 0.00 | 0.00 | 0.00 | 67 | 1015.9 |
| 20260507000111 | 67 | 279 | 8.7 | 13.0 | 0.00 | 0.00 | 0.00 | 66 | 1015.9 |
| 20260506234616 | 67 | 228 | 6.1 | 12.2 | 0.00 | 0.00 | 0.00 | 65 | 1015.9 |
| 20260506233110 | 67 | 241 | 7.0 | 13.0 | 0.00 | 0.00 | 0.00 | 66 | 1015.9 |
| 20260506231558 | 66 | 241 | 7.8 | 13.9 | 0.00 | 0.00 | 0.00 | 69 | 1016.0 |
| 20260506230057 | 67 | 243 | 7.0 | 13.0 | 0.00 | 0.00 | 0.00 | 67 | 1016.0 |
| 20260506224559 | 66 | 227 | 7.8 | 13.9 | 0.00 | 0.00 | 0.00 | 68 | 1016.1 |
| 20260506223101 | 67 | 275 | 8.7 | 13.9 | 0.00 | 0.00 | 0.00 | 67 | 1016.2 |
| 20260506221600 | 67 | 218 | 9.6 | 15.6 | 0.00 | 0.00 | 0.00 | 67 | 1016.2 |
| 20260506220057 | 67 | 269 | 8.7 | 15.6 | 0.00 | 0.00 | 0.00 | 66 | 1016.6 |
| 20260506214601 | 67 | 248 | 7.8 | 11.3 | 0.00 | 0.00 | 0.00 | 65 | 1016.6 |
| 20260506213056 | 66 | 214 | 7.0 | 13.9 | 0.00 | 0.00 | 0.00 | 68 | 1016.8 |
| 20260506212050 | 67 | 228 | 8.7 | 14.8 | 0.00 | 0.00 | 0.00 | 67 | 1016.9 |
| 20260506211948 | 67 | 228 | 8.7 | 14.8 | 0.00 | 0.00 | 0.00 | 67 | 1016.9 |
| 20260506210455 | 65 | 230 | 9.6 | 13.9 | 0.00 | 0.00 | 0.00 | 67 | 1016.8 |
| 20260506204604 | 67 | 233 | 7.8 | 14.8 | 0.00 | 0.00 | 0.00 | 65 | 1016.9 |
| 20260506203058 | 66 | 225 | 9.6 | 13.0 | 0.00 | 0.00 | 0.00 | 66 | 1016.9 |
| 20260506201554 | 67 | 226 | 7.8 | 13.0 | 0.00 | 0.00 | 0.00 | 65 | 1017.0 |
| 20260506200058 | 67 | 228 | 8.7 | 13.9 | 0.00 | 0.00 | 0.00 | 64 | 1017.2 |
| 20260506194555 | 66 | 236 | 8.7 | 14.8 | 0.00 | 0.00 | 0.00 | 68 | 1017.1 |
| 20260506193053 | 66 | 257 | 7.8 | 12.2 | 0.00 | 0.00 | 0.00 | 66 | 1017.3 |
| 20260506191557 | 67 | 234 | 6.1 | 12.2 | 0.00 | 0.00 | 0.00 | 65 | 1017.4 |
| 20260506190058 | 67 | 268 | 6.1 | 11.3 | 0.00 | 0.00 | 0.00 | 65 | 1017.5 |
| 20260506184556 | 66 | 232 | 7.8 | 11.3 | 0.00 | 0.00 | 0.00 | 66 | 1017.6 |
| 20260506183056 | 67 | 240 | 5.2 | 9.6 | 0.00 | 0.00 | 0.00 | 63 | 1017.7 |
| 20260506181554 | 67 | 311 | 5.2 | 9.6 | 0.00 | 0.00 | 0.00 | 58 | 1017.8 |
| 20260506180058 | 66 | 323 | 5.2 | 11.3 | 0.00 | 0.00 | 0.00 | 61 | 1017.9 |
| 20260506174600 | 65 | 352 | 5.2 | 10.4 | 0.00 | 0.00 | 0.00 | 62 | 1018.1 |
| 20260506173513 | 65 | 291 | 6.1 | 8.7 | 0.00 | 0.00 | 0.00 | 63 | 1018.1 |
| 20260506172000 | 64 | 317 | 4.3 | 7.8 | 0.00 | 0.00 | 0.00 | 63 | 1018.4 |
| 20260506170434 | 63 | 302 | 5.2 | 10.4 | 0.00 | 0.00 | 0.00 | 65 | 1018.3 |
| 20260506170241 | 63 | 302 | 5.2 | 10.4 | 0.00 | 0.00 | 0.00 | 65 | 1018.3 |
| 20260506164555 | 63 | 287 | 4.3 | 8.7 | 0.00 | 0.00 | 0.00 | 66 | 1018.2 |
| 20260506163056 | 62 | 323 | 2.6 | 7.8 | 0.00 | 0.00 | 0.00 | 68 | 1018.3 |